Regional Weather Roundup
Issued by NWS

Home | Current Version | Previous Version | Text Only | Print | Product List | Glossary Off
Versions: 1 2 3 4 5 6 7 8 9 10 11 12 13 14 15 16 17 18 19 20 21 22 23 24 25 26 27 28 29 30 31 32 33 34 35 36 37 38 39 40 41 42 43 44 45 46 47 48 49 50

000
ASUS43 KFSD 021202
RWRSD

WEATHER ROUNDUP FOR SOUTH DAKOTA
NATIONAL WEATHER SERVICE SIOUX FALLS SD
700 AM CDT WED SEP 02 2015

NOTE: "FAIR" INDICATES FEW OR NO CLOUDS BELOW 12,000 FEET WITH NO
SIGNIFICANT WEATHER AND/OR OBSTRUCTIONS TO VISIBILITY.


SDZ001>005-009-010-012>017-021300-
NORTHWEST AND NORTH CENTRAL SOUTH DAKOTA

CITY           SKY/WX    TMP DP  RH WIND       PRES   REMARKS
BUFFALO          N/A     63  54  72 CALM      29.76S
FAITH            N/A     62  53  72 NE7       29.80F
MOBRIDGE       FOG       60  59  96 CALM      29.77S VSB 1/2
$$

SDZ012>016-024>037-041>051-057-063-072>074-021300-
SOUTHWEST AND SOUTH CENTRAL SOUTH DAKOTA

CITY           SKY/WX    TMP DP  RH WIND       PRES   REMARKS
RAPID CTY ARPT MOCLDY    58  48  69 NW6       29.84F
PIERRE         FOG       59  59 100 CALM      29.77R VSB 1/4
CUSTER         MOCLDY    63  38  39 W7        30.04R
ELLSWORTH AFB  MOCLDY    64  47  53 W5        29.84S
PHILIP         PTCLDY    54  52  93 W6        29.80R
PINE RIDGE     PTCLDY    59  46  62 W3        29.89R
WINNER         FAIR      67  59  75 SE3       29.81R
$$

SDZ004>011-016>023-039-040-021300-
NORTHEAST SOUTH DAKOTA

CITY           SKY/WX    TMP DP  RH WIND       PRES   REMARKS
ABERDEEN       FOG       63  62  97 CALM      29.80R VSB 1
WATERTOWN      CLEAR     66  64  93 SE7       29.84S
BROOKINGS      CLEAR     64  61  88 SE9       29.87S
$$

SDZ017-020-022-023-036>040-048>070-021300-
SOUTHEAST SOUTH DAKOTA

CITY           SKY/WX    TMP DP  RH WIND       PRES   REMARKS
SIOUX FALLS    CLEAR     68  65  90 SE7       29.86S FOG
HURON          CLEAR     67  66  97 SE12      29.77F
CHAMBERLAIN    CLEAR     61  61  99 SE3       29.79S
MITCHELL       CLEAR     67  66  97 S6        29.81R
YANKTON        CLEAR     66  63  88 SE6       29.83S
$$

ABBREVIATIONS USED IN REMARKS
   TC - TEMPERATURE IN CELSIUS
  WCI - WIND CHILL INDEX
   HX - HEAT INDEX
  VSB - VISIBILITY



USA.gov is the U.S. government's official web portal to all federal, state and local government web resources and services.